Hourly Data Report for October 18, 2013

All times are specified in Local Standard Time (LST). Add 1 hour to adjust for Daylight Saving Time where and when it is observed.

PENTICTON A
BRITISH COLUMBIA

49°27'45.000" N
119°36'08.000" W
344.40 m
1126146
71889
YYF

Download Data

Hourly Data (October 2013)
Hourly Data Report for October 18, 2013
Temp Definition
°C
Dew Point Temp Definition
°C
Rel Hum Definition
%
Wind Dir Definition
10's deg

Wind Spd Definition
km/h
Visibility Definition
km
Stn Press Definition
kPa
Hmdx Definition


Wind Chill Definition


Weather Definition


TIME
00:00 Legend Double Dagger 3.2 0.4 82 36 9 24.1 98.57     LegendNANA
01:00 Legend Double Dagger 2.1 -0.2 85 35 6 24.1 98.56     Clear
02:00 Legend Double Dagger 0.4 -1.4 88 33 7 24.1 98.60     LegendNANA
03:00 Legend Double Dagger 1.1 -0.2 91 5 3 24.1 98.60     LegendNANA
04:00 Legend Double Dagger 1.2 -0.7 87 36 7 24.1 98.58     Clear
05:00 Legend Double Dagger 0.3 -1.2 90 36 7 24.1 98.58     LegendNANA
06:00 Legend Double Dagger 0.9 -0.9 88 2 8 24.1 98.58     LegendNANA
07:00 Legend Double Dagger 0.6 -1.0 89 1 10 24.1 98.60     Mainly Clear
08:00 Legend Double Dagger 4.6 1.8 82 34 6 24.1 98.62     LegendNANA
09:00 Legend Double Dagger 8.0 4.4 78 36 8 24.1 98.61     LegendNANA
10:00 Legend Double Dagger 9.0 4.3 72 2 10 24.1 98.56     Mainly Clear
11:00 Legend Double Dagger 9.7 4.1 68 33 8 24.1 98.51     LegendNANA
12:00 Legend Double Dagger 10.6 4.1 64 35 11 24.1 98.43     LegendNANA
13:00 Legend Double Dagger 11.0 4.7 65 1 10 24.1 98.35     Mainly Clear
14:00 Legend Double Dagger 11.4 4.9 64 35 8 24.1 98.27     LegendNANA
15:00 Legend Double Dagger 11.3 5.4 67 35 11 24.1 98.20     LegendNANA
16:00 Legend Double Dagger 9.9 5.1 72 35 13 24.1 98.17     Mostly Cloudy
17:00 Legend Double Dagger 7.5 4.3 80 29 4 24.1 98.15     LegendNANA
18:00 Legend Double Dagger 4.4 3.2 92 5 1 24.1 98.14     LegendNANA
19:00 Legend Double Dagger 3.3 2.0 91 35 6 24.1 98.17     Mainly Clear
20:00 Legend Double Dagger 3.3 2.3 93 3 5 24.1 98.18     LegendNANA
21:00 Legend Double Dagger 2.5 1.2 91 1 11 24.1 98.18     LegendNANA
22:00 Legend Double Dagger 2.8 1.5 91 36 7 24.1 98.18     Clear
23:00 Legend Double Dagger 2.4 1.1 91 1 10 24.1 98.17     LegendNANA

Notes on Data Quality.

Legend

  • E = Estimated
  • M = Missing
  • NA = Not Available
  • ‡ = Partner data that is not subject to review by the National Climate Archives
Date modified: